Wetbulb
51.51 51.01 50.23 49.40 48.23 47.46 47.12 45.98 44.73 44.26 43.98 43.42 42.67 42.15 41.94 41.67 41.75 40.12 39.92 40.29 38.95 38.33 37.98 37.43 36.55 36.74 35.63 35.15 34.34 33.65 31.37 30.41 27.15 29.39 31.39 31.57 30.67 30.48 32.23 33.02 34.03 33.00 33.67
51.21 50.68 48.80 48.23 47.79 46.91 46.65 46.02 44.73 43.47 43.85 42.69 42.33 41.92 42.20 41.46 40.20 38.94 38.62 39.39 37.53 36.44 36.09 35.50 35.13 37.36 33.68 32.39 30.93 29.46 29.18 29.25 27.45 25.71 28.11 28.48 28.32 29.98 30.58 30.31 32.58 34.21 32.94
50.49 48.09 47.39 47.35 46.82 45.79 46.07 44.84 44.28 43.66 42.69 42.12 42.04 41.53 41.22 40.06 38.98 38.89 38.19 37.56 36.95 36.14 35.49 35.09 34.35 32.67 29.77 29.30 28.09 26.91 27.42 29.55 27.53 25.48 24.84 27.37 27.74 28.73 28.97 30.21 30.50 31.15 33.63
48.68 47.43 46.54 45.61 46.00 45.62 45.16 44.02 43.69 43.44 42.27 41.69 41.84 42.01 41.67 40.17 39.34 38.94 38.52 37.02 35.73 35.28 35.36 34.41 32.58 31.43 28.61 26.75 27.02 25.37 26.54 24.93 25.00 24.37 24.32 24.88 26.09 27.95 28.25 26.51 26.66 28.94 28.69
48.17 45.83 45.20 45.89 46.03 45.19 44.14 43.71 43.31 42.80 41.98 42.03 41.54 41.13 39.98 38.93 38.88 36.83 35.91 33.74 32.96 32.13 32.62 33.32 32.05 31.65 32.97 30.12 27.09 25.00 24.53 23.83 23.48 22.87 22.88 24.08 24.28 24.03 23.60 26.55 26.37 27.33 27.81
46.66 45.41 45.48 45.38 44.36 43.98 43.18 42.98 42.36 41.97 41.55 41.29 40.19 40.22 38.45 38.88 33.40 32.75 32.27 30.42 31.87 31.34 29.72 30.24 30.71 33.05 32.21 32.11 31.18 30.23 27.73 23.39 22.55 22.67 23.07 22.60 23.42 25.44 26.78 24.49 24.27 23.59 21.89
45.12 44.95 44.46 43.91 43.15 42.67 42.32 41.79 40.98 40.35 40.11 39.57 39.44 39.05 37.65 36.37 33.39 31.91 30.03 29.63 29.22 29.60 29.35 29.21 29.81 31.99 28.88 26.44 27.77 27.89 27.24 28.86 27.85 25.72 24.06 25.03 25.54 23.90 24.08 23.08 22.96 22.99 23.07
43.26 43.59 44.13 42.92 42.21 41.27 41.14 40.53 40.14 40.06 39.29 38.31 37.59 38.02 37.85 37.50 33.24 31.96 30.23 27.64 28.43 29.61 29.82 29.26 28.04 27.52 24.60 24.89 23.94 22.67 23.85 24.61 25.47 27.07 24.21 23.27 24.44 25.60 25.48 25.66 25.10 25.16 26.30
42.56 42.70 42.21 41.55 40.32 40.33 39.96 39.33 39.39 38.89 38.33 37.65 37.55 37.14 36.99 33.18 32.56 31.43 28.91 27.65 28.58 28.71 30.25 29.87 29.24 27.15 26.15 26.66 23.31 22.18 22.11 23.03 27.91 28.27 27.41 28.20 29.10 30.42 30.39 28.19 25.40 24.25 22.61
40.07 39.99 40.71 40.62 39.79 39.03 39.27 38.89 38.78 38.53 38.15 37.68 36.76 36.40 34.55 33.42 31.95 31.00 28.92 27.61 27.03 27.58 28.22 28.30 28.03 25.75 25.79 25.45 21.28 20.61 19.03 21.41 21.94 21.85 23.54 26.01 27.56 28.37 30.09 29.37 27.16 24.89 24.73
40.94 40.17 39.59 39.77 39.47 39.50 39.14 38.54 37.12 36.67 36.16 34.72 33.51 33.71 34.14 33.83 30.73 31.35 30.32 27.21 26.84 26.96 26.46 25.80 26.60 26.76 26.27 25.85 24.75 21.52 20.89 22.98 22.59 22.10 23.88 24.55 26.35 27.04 26.80 27.24 27.60 27.69 27.15
38.91 38.64 38.99 38.66 38.78 38.71 37.60 36.86 36.79 36.10 34.31 33.45 32.53 32.41 31.95 32.37 33.07 31.69 30.80 29.28 29.32 24.28 25.72 26.02 26.48 27.98 27.33 26.07 24.39 25.01 25.22 23.87 20.69 19.61 21.48 22.77 23.82 24.84 26.21 26.71 28.39 28.94 30.40
38.30 37.37 37.39 38.08 38.19 37.93 36.38 35.65 34.77 34.33 32.40 32.00 31.55 32.14 32.39 31.64 31.19 32.61 31.28 30.17 28.88 24.23 25.95 27.69 28.58 27.70 27.89 25.84 27.30 26.21 22.39 21.03 18.65 15.33 19.12 20.07 22.41 25.06 26.75 26.52 27.63 28.75 29.70
36.32 36.30 37.06 36.37 36.04 36.36 36.23 35.31 34.41 32.95 31.83 31.23 31.81 31.91 30.34 30.36 31.29 31.43 28.78 28.28 28.77 27.22 26.44 27.13 25.46 24.78 22.26 22.56 21.71 24.58 23.25 21.23 19.05 17.19 16.78 19.92 22.23 22.88 23.29 25.00 24.25 26.08 25.91
36.34 36.13 35.74 35.61 35.57 35.38 35.72 35.16 32.21 33.10 32.67 31.02 31.46 31.50 29.27 31.04 30.14 32.34 31.61 30.71 29.87 28.73 22.20 21.73 21.20 23.78 23.06 22.52 22.88 22.77 22.28 21.88 19.66 17.87 16.67 17.64 20.15 21.58 21.57 23.22 24.76 24.51 23.07
34.56 34.24 33.69 33.82 33.84 34.35 34.21 34.10 34.93 32.28 33.06 32.80 32.73 30.04 30.51 33.73 32.77 32.20 31.85 31.18 29.98 28.24 21.90 18.92 18.17 20.47 20.19 20.74 19.24 20.39 20.31 19.89 19.99 18.78 17.49 18.68 18.93 18.22 20.03 21.77 23.96 23.00 21.91
33.20 33.17 32.99 32.30 33.08 32.90 31.67 31.04 29.93 32.51 34.05 32.78 32.81 32.48 32.21 31.65 32.73 31.85 31.19 30.76 29.75 27.75 20.58 19.80 21.01 22.49 23.61 21.82 20.74 20.29 18.32 18.80 19.19 19.34 16.57 16.83 17.35 19.81 18.36 20.11 20.51 21.42 20.02
34.36 32.74 33.00 33.33 33.54 33.32 33.17 32.45 31.44 30.52 29.53 30.25 32.58 31.85 32.11 31.88 31.77 31.83 31.61 30.96 26.87 26.94 25.01 22.99 23.17 23.57 24.51 22.82 21.83 20.84 19.50 17.63 17.08 17.57 14.62 14.76 12.79 16.06 18.26 17.26 18.83 18.41 19.01
34.90 34.49 34.35 34.71 34.01 32.76 31.71 31.92 31.23 30.51 30.21 30.21 30.74 29.85 29.42 32.24 32.24 31.60 31.12 27.90 26.19 25.15 25.58 25.09 24.61 24.85 26.49 23.67 21.17 20.31 17.04 17.23 15.24 11.86 14.19 15.29 11.66 15.71 14.02 18.50 14.81 16.46 17.78
36.50 34.07 32.91 34.28 33.46 33.45 32.36 31.87 31.27 31.02 30.58 30.02 30.05 30.38 29.82 30.63 29.86 28.11 27.91 27.19 26.26 25.72 26.04 27.39 26.43 25.67 27.44 25.29 22.63 21.62 21.85 16.46 15.94 16.77 15.55 11.58 15.28 12.27 13.81 15.00 12.76 11.63 16.28
35.15 35.12 33.59 33.67 33.24 33.30 33.29 32.68 32.32 31.92 31.16 30.34 30.42 30.83 30.04 31.10 31.04 29.91 28.03 27.89 27.58 27.01 26.82 26.51 26.37 26.38 26.47 26.11 23.38 22.88 24.31 18.89 20.87 16.53 15.22 14.07 10.37 9.98 14.94 16.26 16.00 14.75 16.46
33.20 33.51 33.11 32.58 32.60 32.55 32.10 31.90 31.01 30.78 30.85 30.23 29.67 30.18 29.88 31.45 31.55 30.45 30.24 29.17 30.80 30.26 29.83 28.41 27.63 27.32 27.79 27.06 25.71 23.73 23.31 20.29 17.36 15.70 15.10 14.52 12.28 12.58 13.01 12.25 14.25 12.05 13.48
31.07 31.38 32.05 32.07 31.88 31.83 31.34 30.10 29.68 29.37 29.77 31.10 31.26 30.66 30.15 30.80 31.61 30.58 30.34 30.69 30.74 31.05 31.20 30.32 29.82 28.74 28.46 28.03 27.95 26.53 24.86 22.72 20.95 18.29 14.76 12.88 12.24 12.21 11.11 10.46 11.19 11.74 10.01
29.12 29.11 29.72 30.35 31.17 31.09 30.36 29.79 29.47 27.94 29.34 30.96 31.89 30.73 30.20 30.66 31.07 31.88 31.86 31.96 31.17 31.12 31.79 31.77 31.12 30.02 30.00 29.80 29.00 28.11 26.15 25.67 23.95 19.34 14.59 11.98 11.39 12.46 11.40 10.55 10.06 9.06 8.81
28.08 28.53 28.99 29.67 29.93 30.66 30.73 29.40 28.62 28.74 29.36 29.86 30.02 30.73 30.42 30.82 30.71 31.26 32.00 32.12 31.88 31.88 31.91 31.91 31.70 31.38 30.80 29.88 29.29 28.08 26.55 25.64 24.32 18.49 17.28 12.63 10.15 8.26 8.56 9.04 7.66 10.03 9.08
26.33 26.47 29.02 29.41 29.49 30.25 28.96 27.12 26.24 26.33 25.30 25.15 25.61 26.11 26.46 27.14 28.44 30.53 30.82 30.25 30.36 30.58 31.43 32.33 32.11 31.91 30.97 30.47 29.60 28.98 26.35 25.56 23.09 19.78 19.57 17.41 14.17 9.93 9.57 11.33 9.56 8.44 10.54
MSLP
1017.80 1018.66 1019.41 1020.02 1020.56 1021.00 1021.20 1021.59 1022.11 1022.56 1022.97 1023.15 1023.22 1023.37 1023.47 1023.42 1023.27 1023.45 1023.55 1023.43 1023.32 1023.33 1023.49 1023.61 1023.71 1023.88 1023.87 1023.87 1023.77 1023.74 1023.70 1023.59 1023.21 1022.53 1022.29 1021.94 1021.90 1021.71 1021.29 1020.94 1020.53 1020.13 1019.59
1017.89 1018.72 1019.48 1020.21 1020.62 1020.80 1020.91 1021.36 1021.79 1022.36 1022.70 1022.85 1022.97 1023.13 1023.17 1023.17 1023.32 1023.43 1023.56 1023.42 1023.45 1023.40 1023.33 1023.51 1023.66 1023.60 1023.67 1023.84 1023.84 1023.94 1023.96 1023.84 1023.57 1022.85 1022.51 1022.28 1022.06 1021.64 1021.10 1020.70 1020.10 1019.61 1019.09
1017.90 1018.92 1019.79 1020.21 1020.33 1020.64 1020.56 1021.06 1021.63 1022.12 1022.44 1022.55 1022.67 1022.79 1022.86 1022.96 1023.38 1023.47 1023.69 1023.79 1023.84 1023.93 1023.84 1023.37 1023.48 1023.65 1023.82 1023.89 1024.15 1024.28 1024.31 1024.06 1023.82 1023.45 1022.72 1022.39 1022.00 1021.54 1021.03 1020.51 1019.99 1019.37 1018.81
1018.13 1019.11 1019.53 1019.89 1020.23 1020.23 1020.62 1020.99 1021.51 1021.90 1022.22 1022.43 1022.48 1022.42 1022.45 1022.72 1023.17 1023.37 1023.46 1023.66 1023.76 1023.71 1023.72 1023.65 1023.29 1023.37 1023.71 1023.98 1024.10 1024.34 1024.26 1024.22 1023.99 1023.64 1022.99 1022.41 1021.93 1021.41 1020.90 1020.35 1019.71 1019.32 1018.56
1018.26 1019.05 1019.72 1019.85 1020.02 1020.38 1020.67 1021.10 1021.49 1021.78 1022.02 1022.14 1022.19 1022.17 1022.13 1022.46 1022.97 1023.33 1023.53 1023.59 1023.71 1023.71 1023.64 1023.55 1023.24 1023.30 1023.36 1023.69 1023.94 1023.96 1024.10 1024.21 1023.97 1023.56 1023.00 1022.39 1021.71 1021.15 1020.78 1020.33 1019.94 1019.47 1018.40
1018.59 1019.26 1020.03 1019.69 1020.00 1020.54 1020.71 1021.17 1021.49 1021.80 1021.96 1022.08 1022.10 1021.99 1022.06 1022.48 1023.30 1023.67 1023.88 1024.02 1023.91 1023.88 1023.64 1023.41 1023.33 1023.20 1023.18 1023.42 1023.75 1023.80 1023.93 1023.87 1023.58 1023.33 1022.74 1022.15 1021.56 1021.21 1020.90 1020.47 1019.93 1019.33 1018.29
1018.70 1019.27 1019.42 1019.66 1020.27 1020.38 1020.73 1020.99 1021.18 1021.53 1021.67 1021.73 1021.85 1021.94 1022.04 1022.59 1023.22 1023.57 1023.72 1024.00 1023.67 1023.80 1023.51 1023.30 1023.24 1023.11 1023.69 1023.86 1023.85 1023.84 1023.74 1023.27 1022.91 1022.54 1022.05 1021.74 1021.34 1021.07 1020.69 1020.19 1019.68 1019.15 1018.29
1019.00 1019.61 1020.05 1020.33 1020.55 1020.62 1020.71 1020.91 1020.90 1021.07 1021.24 1021.50 1021.54 1021.64 1021.78 1022.03 1022.60 1023.16 1023.76 1023.92 1023.47 1023.45 1023.38 1023.18 1023.14 1023.22 1023.69 1023.91 1023.98 1023.83 1023.53 1023.09 1022.60 1022.01 1021.63 1021.29 1020.91 1020.58 1020.28 1019.83 1019.22 1018.64 1017.68
1019.31 1019.96 1020.15 1020.42 1020.98 1021.32 1020.93 1020.69 1020.66 1020.73 1020.87 1021.06 1021.16 1021.18 1021.50 1022.22 1022.59 1022.89 1023.57 1023.35 1023.48 1023.22 1023.20 1023.03 1022.88 1023.10 1023.62 1023.71 1023.87 1023.75 1023.34 1022.88 1022.19 1021.67 1021.38 1020.84 1020.28 1019.78 1019.24 1018.89 1018.46 1018.01 1017.05
1020.02 1020.59 1020.81 1021.17 1021.41 1021.10 1021.03 1020.59 1020.36 1020.38 1020.48 1020.70 1020.79 1020.99 1021.46 1021.96 1022.77 1023.06 1023.21 1022.98 1023.18 1023.42 1023.13 1022.95 1023.04 1023.27 1023.53 1023.73 1023.71 1023.60 1023.24 1022.78 1022.32 1021.80 1021.24 1020.51 1019.91 1019.31 1018.73 1018.45 1018.21 1017.74 1017.03
1020.95 1021.41 1021.70 1021.74 1021.16 1020.90 1020.99 1020.60 1020.45 1020.51 1020.48 1020.51 1020.61 1020.82 1021.07 1021.41 1021.99 1022.70 1022.70 1022.59 1023.01 1023.15 1023.16 1023.11 1023.05 1023.19 1023.34 1023.25 1023.22 1023.16 1022.87 1022.45 1022.11 1021.72 1020.93 1020.34 1019.70 1019.14 1018.72 1018.31 1017.94 1017.51 1016.54
1021.74 1021.79 1021.54 1021.36 1020.91 1020.57 1020.56 1020.57 1020.48 1020.43 1020.39 1020.39 1020.42 1020.76 1020.83 1021.24 1021.60 1021.78 1021.90 1022.25 1022.59 1022.91 1022.99 1022.81 1022.62 1022.62 1022.75 1022.78 1022.68 1022.40 1022.12 1022.09 1021.89 1021.42 1020.98 1020.36 1019.78 1019.27 1018.74 1018.17 1017.52 1016.84 1016.07
1021.56 1021.62 1021.59 1021.20 1020.79 1020.49 1020.39 1020.30 1020.16 1020.20 1020.12 1020.08 1020.34 1020.55 1020.80 1020.72 1020.88 1020.95 1021.46 1021.90 1022.20 1022.63 1022.54 1022.32 1022.28 1022.43 1022.27 1022.14 1021.90 1021.74 1021.74 1021.72 1021.37 1021.44 1021.02 1020.47 1019.90 1019.18 1018.52 1017.94 1017.24 1016.41 1015.47
1021.49 1021.33 1021.05 1020.90 1020.69 1020.53 1020.30 1020.10 1019.96 1019.80 1019.84 1020.03 1020.08 1020.26 1020.42 1020.44 1020.34 1020.71 1021.10 1021.49 1021.89 1022.11 1022.01 1022.02 1022.02 1021.98 1021.71 1021.62 1021.54 1021.31 1021.14 1021.11 1021.05 1021.06 1020.80 1020.43 1019.82 1019.13 1018.52 1017.96 1017.35 1016.43 1015.56
1021.22 1021.09 1020.91 1020.84 1020.70 1020.44 1020.12 1019.86 1019.82 1019.62 1019.67 1019.79 1019.88 1019.95 1020.01 1020.08 1020.01 1019.92 1020.35 1020.76 1021.16 1021.41 1021.58 1021.62 1021.67 1021.52 1021.27 1021.10 1020.96 1020.74 1020.72 1020.72 1020.86 1020.74 1020.77 1020.48 1019.90 1019.35 1018.77 1018.06 1017.38 1016.70 1016.11
1021.00 1021.01 1020.83 1020.59 1020.41 1020.20 1019.87 1019.54 1019.38 1019.21 1019.03 1019.07 1019.20 1019.28 1019.25 1019.28 1019.36 1019.59 1019.86 1020.07 1020.49 1020.88 1021.22 1021.30 1021.24 1021.09 1020.83 1020.83 1020.79 1020.76 1020.35 1020.40 1020.55 1020.64 1020.54 1020.32 1020.07 1019.63 1019.05 1018.30 1017.47 1016.97 1016.44
1020.89 1020.86 1020.72 1020.47 1020.07 1019.81 1019.53 1019.48 1019.41 1018.98 1018.88 1018.63 1018.52 1018.49 1018.57 1018.69 1018.82 1019.01 1019.27 1019.57 1019.92 1020.40 1020.62 1020.79 1020.76 1020.51 1020.23 1020.30 1020.34 1020.30 1020.23 1020.11 1020.30 1020.37 1020.42 1020.37 1020.08 1019.78 1019.24 1018.63 1018.04 1017.43 1016.83
1020.07 1020.17 1020.15 1019.75 1019.41 1019.13 1019.05 1019.12 1019.06 1018.87 1018.46 1018.06 1017.84 1017.75 1017.72 1017.86 1018.01 1018.21 1018.55 1018.99 1019.39 1019.62 1019.79 1019.88 1019.89 1019.70 1019.52 1019.60 1019.76 1019.82 1019.77 1019.97 1020.17 1020.27 1020.28 1020.11 1019.99 1019.86 1019.34 1018.84 1018.45 1018.01 1017.36
1019.38 1019.16 1018.96 1018.72 1018.42 1018.41 1018.51 1018.33 1018.33 1018.22 1017.91 1017.54 1017.20 1016.96 1016.84 1016.92 1017.06 1017.33 1017.78 1018.19 1018.41 1018.55 1018.64 1018.77 1018.78 1018.73 1018.58 1018.58 1018.67 1018.92 1019.30 1019.64 1019.84 1019.97 1019.98 1019.85 1019.77 1019.76 1019.48 1019.07 1018.62 1018.25 1017.75
1018.52 1018.19 1018.05 1017.83 1017.71 1017.80 1017.58 1017.57 1017.54 1017.38 1017.16 1016.85 1016.54 1016.37 1016.18 1016.31 1016.32 1016.47 1016.80 1017.17 1017.41 1017.50 1017.51 1017.51 1017.60 1017.55 1017.64 1017.68 1017.91 1018.29 1018.70 1019.07 1019.27 1019.41 1019.48 1019.51 1019.47 1019.48 1019.53 1019.15 1018.78 1018.35 1017.95
1018.50 1018.04 1017.69 1017.46 1017.24 1017.21 1017.06 1017.00 1016.82 1016.68 1016.37 1016.10 1015.75 1015.48 1015.38 1015.47 1015.42 1015.39 1015.64 1015.91 1016.08 1016.21 1016.29 1016.39 1016.50 1016.64 1016.77 1016.93 1017.19 1017.58 1017.97 1018.33 1018.53 1018.80 1019.03 1019.17 1019.26 1019.76 1019.18 1018.85 1018.82 1018.50 1018.14
1018.77 1017.94 1017.43 1017.08 1016.82 1016.78 1016.63 1016.39 1016.21 1015.95 1015.62 1015.31 1014.97 1014.77 1014.62 1014.68 1014.59 1014.47 1014.53 1014.65 1014.79 1014.94 1015.03 1015.20 1015.39 1015.58 1015.77 1015.97 1016.34 1016.75 1017.17 1017.56 1017.85 1018.20 1018.50 1018.73 1018.94 1019.01 1018.87 1018.89 1018.89 1018.59 1018.32
1018.86 1018.13 1017.36 1016.62 1016.16 1016.01 1015.92 1015.83 1015.60 1015.32 1014.97 1014.66 1014.13 1014.03 1014.05 1013.90 1013.75 1013.46 1013.47 1013.56 1013.83 1013.97 1014.03 1014.20 1014.39 1014.55 1014.66 1014.88 1015.18 1015.57 1016.09 1016.54 1016.95 1017.41 1017.91 1018.30 1018.57 1018.67 1018.66 1019.09 1018.88 1018.70 1018.54
1018.66 1017.92 1017.13 1016.47 1015.94 1015.43 1015.27 1015.18 1015.04 1014.78 1014.47 1014.07 1013.54 1013.43 1013.38 1013.23 1013.09 1012.81 1012.60 1012.63 1012.78 1012.92 1013.02 1013.18 1013.35 1013.51 1013.64 1013.90 1014.19 1014.53 1014.98 1015.43 1016.03 1016.73 1017.31 1017.97 1018.32 1018.39 1018.46 1018.58 1018.72 1018.78 1018.64
1018.47 1017.45 1016.62 1015.97 1015.39 1014.88 1014.54 1014.56 1014.60 1014.53 1014.35 1014.11 1013.80 1013.34 1012.93 1012.68 1012.47 1012.27 1012.17 1012.08 1012.01 1012.03 1012.07 1012.14 1012.21 1012.28 1012.48 1012.80 1013.15 1013.54 1014.04 1014.59 1015.26 1016.06 1016.77 1017.52 1018.07 1018.18 1018.28 1018.46 1018.52 1018.54 1018.69
1018.84 1017.88 1016.31 1015.67 1015.06 1014.42 1014.12 1014.41 1014.72 1014.84 1014.85 1014.73 1014.45 1014.08 1013.72 1013.24 1012.75 1012.04 1011.60 1011.42 1011.39 1011.34 1011.32 1011.27 1011.19 1011.28 1011.43 1011.65 1012.00 1012.49 1013.16 1013.84 1014.54 1015.33 1016.09 1016.86 1017.53 1017.80 1017.95 1018.09 1018.16 1018.44 1018.58
Wind_Speed
8 7 6 5 6 4 5 4 3 2 2 3 4 5 5 6 4 5 7 7 5 5 5 5 4 4 3 3 4 4 4 5 9 9 9 6 8 7 9 9 10 11 11
7 6 7 5 6 6 5 5 5 2 2 3 4 5 6 4 6 4 5 5 5 4 4 4 5 5 5 5 4 6 7 8 9 13 9 8 6 8 9 9 9 10 10
8 7 5 8 5 4 5 4 4 1 1 3 4 5 6 3 4 3 5 5 5 5 5 5 5 5 5 4 5 5 6 7 7 8 10 8 7 7 10 9 10 9 9
7 7 6 1 7 2 1 2 2 0 2 4 5 5 2 4 4 4 3 3 4 5 6 5 4 4 5 4 4 4 6 6 7 8 9 9 8 9 7 8 8 8 8
5 4 4 4 2 1 1 1 1 1 3 5 5 6 1 2 3 4 4 4 6 6 7 6 5 3 3 2 3 5 4 5 6 8 9 9 8 8 9 7 8 9 9
4 4 2 4 4 3 1 1 2 4 5 4 5 6 2 2 10 8 4 3 5 6 6 5 5 8 2 8 5 6 6 5 8 8 10 10 11 9 6 7 8 9 11
5 5 1 3 3 1 1 3 4 4 3 5 6 6 2 4 11 9 6 1 3 6 5 4 4 5 7 5 8 12 13 18 12 10 12 9 9 7 8 10 10 9 10
4 4 4 2 1 2 2 5 4 5 4 3 5 6 4 2 14 11 6 3 4 6 5 4 4 3 6 4 4 6 8 9 11 9 6 7 7 9 10 10 12 12 11
4 1 3 3 5 6 6 5 4 4 3 3 4 6 4 6 12 11 7 3 4 5 5 6 4 3 6 7 5 7 9 9 13 19 22 21 20 20 17 9 8 8 10
11 10 8 5 6 7 6 6 3 4 4 4 2 3 5 7 12 12 7 2 1 3 5 5 7 6 4 6 3 4 7 9 10 11 10 12 12 12 13 5 5 8 9
4 8 7 8 7 6 7 4 3 5 5 4 4 3 3 6 10 14 11 3 2 2 1 3 2 5 5 10 9 4 7 8 10 9 8 7 7 7 6 7 8 7 9
3 6 7 8 7 6 5 4 5 6 6 4 2 3 3 4 8 15 15 11 5 3 3 3 3 8 12 12 9 12 12 9 5 3 6 6 7 7 8 8 10 9 9
4 5 8 9 7 6 5 6 4 5 3 1 2 2 3 4 4 15 14 13 10 4 3 6 7 10 15 10 13 9 7 4 2 2 5 5 6 7 9 8 9 11 10
6 8 7 5 5 5 5 5 5 4 1 2 2 4 3 3 3 5 6 6 11 7 7 5 4 8 8 7 6 8 3 3 2 3 2 4 6 6 5 6 8 8 8
7 5 5 4 5 5 6 6 2 2 2 3 3 3 2 3 3 4 8 7 6 6 2 2 2 5 3 2 3 3 2 2 2 1 2 3 5 6 7 7 7 6 6
5 5 4 3 3 5 6 6 7 6 8 9 11 6 3 9 8 10 9 8 8 8 3 2 3 4 3 3 3 3 2 2 1 1 3 3 3 4 7 8 7 5 6
6 5 3 5 4 5 2 2 8 8 10 11 12 12 13 11 11 13 12 11 10 8 3 3 6 6 3 3 3 3 2 1 2 2 2 3 2 5 5 6 7 7 6
6 8 7 8 7 4 2 5 5 7 8 8 8 13 13 15 16 15 13 11 5 9 7 6 7 6 4 4 3 2 1 1 1 1 2 3 3 2 5 3 5 6 8
7 7 8 8 5 4 4 5 6 7 8 8 7 5 9 16 16 16 14 7 7 7 8 8 8 7 6 4 3 3 3 2 3 2 3 2 3 2 3 4 3 6 7
11 11 9 7 4 6 5 6 7 7 8 7 7 7 4 4 7 7 8 8 8 8 8 7 7 4 4 4 4 4 3 3 3 3 3 2 2 1 3 4 3 2 3
10 10 11 7 5 6 6 8 7 7 8 7 7 6 8 6 7 7 8 9 10 9 8 8 7 6 5 4 4 4 4 3 3 3 2 2 1 2 4 3 3 3 3
11 11 9 7 6 7 8 6 6 8 10 8 7 6 8 6 8 7 7 6 7 9 8 7 7 7 7 6 6 5 6 5 3 3 3 3 2 3 3 2 3 2 2
11 13 12 10 8 8 8 6 8 8 9 10 8 6 6 5 7 9 9 8 7 6 7 7 7 8 7 7 7 7 6 5 5 5 4 3 2 3 0 2 2 2 2
13 13 13 11 9 8 6 7 7 8 8 9 7 5 6 5 6 7 8 7 7 9 8 8 8 10 9 9 8 7 6 5 4 5 6 4 2 3 2 1 2 3 2
13 14 13 11 11 10 7 5 5 4 5 6 7 6 5 6 6 6 6 5 6 6 8 8 9 11 14 14 12 12 11 11 9 7 5 5 4 3 1 2 2 2 3
12 16 12 8 9 9 2 4 5 6 7 8 8 8 8 8 9 7 5 5 5 6 7 7 9 14 14 14 16 15 15 14 12 10 7 5 5 3 3 4 4 2 3
Wind_Direction
147 147 126 130 123 184 178 167 148 109 284 333 330 327 306 291 2 359 343 323 335 357 4 353 350 324 284 304 290 298 316 322 311 309 310 326 338 319 317 307 302 297 289
161 143 130 147 207 195 163 167 155 175 301 321 321 299 293 344 354 339 314 314 342 346 342 340 313 315 328 344 334 345 342 331 315 311 318 321 318 308 295 296 291 299 293
155 121 167 206 184 194 196 151 153 180 320 314 305 292 292 27 324 343 326 341 327 339 318 306 313 348 331 350 17 344 329 318 318 317 312 315 311 308 308 301 300 296 301
135 193 184 77 216 69 39 115 100 299 332 297 289 279 343 13 344 329 304 323 312 311 320 331 332 325 33 353 329 324 306 317 317 310 305 305 305 303 299 306 313 314 302
165 111 204 219 101 177 132 149 231 351 281 266 271 277 161 207 263 53 32 3 348 337 317 321 341 25 253 227 271 268 317 310 304 298 296 298 299 308 312 320 316 309 304
156 178 252 207 50 354 27 355 297 261 271 290 291 285 215 271 131 116 88 17 331 320 297 334 344 317 28 209 297 353 292 274 284 284 284 288 294 315 310 316 313 311 311
161 209 30 48 225 194 331 288 285 280 296 279 273 286 261 116 146 137 131 234 327 284 301 316 320 316 56 29 354 338 315 299 290 279 276 288 292 302 314 310 305 298 296
62 8 318 294 268 305 315 267 273 259 252 290 290 286 240 186 160 159 169 245 267 295 299 319 302 325 88 36 337 314 306 307 298 299 320 315 302 303 293 287 286 287 285
159 143 275 355 13 296 283 307 289 299 273 269 278 275 228 131 162 160 181 235 297 308 319 298 308 306 81 13 341 309 306 305 305 334 325 314 308 298 292 286 281 272 281
36 4 359 12 312 296 282 278 279 277 273 269 336 35 59 124 178 185 191 177 314 292 283 323 82 74 31 332 298 296 300 301 327 311 306 305 307 301 307 320 310 317 310
354 20 351 278 270 280 282 311 320 307 286 264 196 214 222 165 178 196 195 168 201 258 330 295 160 110 343 328 313 279 268 304 301 298 299 312 312 322 324 318 310 303 300
0 263 276 300 296 301 303 298 286 273 264 264 183 217 201 224 189 197 193 197 199 189 248 266 295 345 321 302 293 272 284 292 282 304 310 311 320 320 317 309 304 300 292
343 310 295 283 298 297 287 277 287 289 258 300 248 206 234 221 233 191 197 205 209 217 226 250 294 295 281 273 274 251 255 267 271 313 303 318 315 307 311 315 315 310 308
276 269 272 295 305 303 285 271 265 263 223 232 256 259 240 207 201 168 188 206 227 218 238 265 235 251 252 260 290 273 200 234 238 248 297 303 306 315 320 318 318 323 322
274 295 293 284 280 290 290 280 276 264 222 236 249 239 246 253 243 194 178 198 204 207 181 233 267 266 245 267 284 267 254 272 300 352 309 294 310 330 325 326 318 326 333
290 281 263 256 265 274 282 292 294 257 248 244 243 228 223 222 187 193 203 209 208 188 195 216 245 260 231 234 251 261 246 269 77 343 286 307 308 320 322 323 329 331 331
255 273 280 266 259 276 268 301 304 294 277 256 248 241 232 232 223 208 213 217 220 208 192 227 251 252 228 218 239 239 236 159 165 261 317 296 316 313 315 327 338 338 333
236 245 252 254 253 239 239 272 268 282 289 288 257 240 242 241 236 227 215 212 217 221 223 224 244 246 231 210 225 229 108 61 332 293 304 280 291 294 319 316 336 333 332
263 254 254 259 249 228 248 242 253 259 266 277 279 259 221 237 235 226 219 218 228 226 222 223 229 241 244 204 201 176 165 194 221 222 257 264 293 306 309 313 305 328 330
289 278 265 268 255 261 244 261 260 257 266 268 270 261 255 214 216 209 207 215 223 231 235 228 228 221 243 196 180 172 180 196 216 215 225 242 276 330 294 299 304 302 315
312 311 306 297 283 278 271 272 270 272 271 262 268 259 245 240 244 210 206 213 219 225 227 229 218 222 222 198 178 180 192 204 201 205 208 237 166 291 274 286 294 306 313
309 299 297 285 279 282 284 279 283 283 281 263 269 268 252 239 243 225 225 224 215 221 221 219 217 215 216 208 191 192 203 199 188 185 201 196 195 254 273 298 298 319 334
318 313 307 278 266 273 274 276 283 284 286 283 254 249 257 251 260 231 224 224 228 230 226 221 223 220 215 204 199 196 195 187 186 178 173 177 212 249 300 298 301 321 2
311 304 300 300 302 273 258 271 278 281 286 286 265 255 261 268 270 269 235 222 221 226 225 222 224 225 220 211 202 197 185 170 155 151 149 149 203 251 227 315 324 309 307
313 300 290 288 289 276 254 263 293 319 330 337 336 313 279 269 261 252 247 243 237 233 232 228 227 226 220 209 204 197 187 178 157 151 149 150 193 219 172 247 264 290 298
341 348 327 318 305 300 18 31 3 4 2 355 349 348 348 342 338 316 261 234 239 240 242 245 238 230 225 215 207 194 186 179 165 158 153 167 179 194 200 210 218 208 282